2023/08/12 00:00:00, 0.0,24.9
2023/08/12 00:10:00, 0.0,24.7
2023/08/12 00:20:00, 0.0,24.6
2023/08/12 00:30:00, 0.0,24.5
2023/08/12 00:40:00, 0.0,24.2
2023/08/12 00:50:00, 0.0,24.2
2023/08/12 01:00:00, 0.0,24.3
2023/08/12 01:10:00, 0.0,24.4
2023/08/12 01:20:00, 0.0,24.0
2023/08/12 01:30:00, 0.0,24.0
2023/08/12 01:40:00, 0.0,24.1
2023/08/12 01:50:00, 0.0,24.0
2023/08/12 02:00:00, 0.0,24.0
2023/08/12 02:10:00, 0.0,23.8
2023/08/12 02:20:00, 0.0,23.8
2023/08/12 02:30:00, 0.0,23.9
2023/08/12 02:40:00, 0.0,23.6
2023/08/12 02:50:00, 0.0,23.8
2023/08/12 03:00:00, 0.0,23.8
2023/08/12 03:10:00, 0.0,23.6
2023/08/12 03:20:00, 0.0,23.7
2023/08/12 03:30:00, 0.0,23.5
2023/08/12 03:40:00, 0.0,23.4
2023/08/12 03:50:00, 0.0,23.3
2023/08/12 04:00:00, 0.0,23.3
2023/08/12 04:10:00, 0.0,23.3
2023/08/12 04:20:00, 0.0,23.1
2023/08/12 04:30:00, 0.0,23.3
2023/08/12 04:40:00, 0.0,23.1
2023/08/12 04:50:00, 0.0,23.0
2023/08/12 05:00:00, 0.0,23.0
2023/08/12 05:10:00, 0.0,22.8
2023/08/12 05:20:00, 0.0,22.9
2023/08/12 05:30:00, 0.0,23.0
2023/08/12 05:40:00, 0.0,23.1
2023/08/12 05:50:00, 0.0,23.2
2023/08/12 06:00:00, 0.0,23.4
2023/08/12 06:10:00, 0.0,23.7
2023/08/12 06:20:00, 0.0,23.9
2023/08/12 06:30:00, 0.0,24.0
2023/08/12 06:40:00, 0.0,24.1
2023/08/12 06:50:00, 0.0,24.0
2023/08/12 07:00:00, 0.0,24.6
2023/08/12 07:10:00, 0.0,24.8
2023/08/12 07:20:00, 0.1,26.0
2023/08/12 07:30:00, 0.1,26.8
2023/08/12 07:40:00, 0.0,27.6
2023/08/12 07:50:00, 0.0,27.9
2023/08/12 08:00:00, 0.0,28.5
2023/08/12 08:10:00, 0.1,29.3
2023/08/12 08:20:00, 0.1,29.8
2023/08/12 08:30:00, 0.2,29.4
2023/08/12 08:40:00, 0.5,30.2
2023/08/12 08:50:00, 0.3,30.8
2023/08/12 09:00:00, 0.4,30.6
2023/08/12 09:10:00, 0.3,30.4
2023/08/12 09:20:00, 0.5,30.8
2023/08/12 09:30:00, 0.5,31.6
2023/08/12 09:40:00, 0.6,31.1
2023/08/12 09:50:00, 0.5,30.9
2023/08/12 10:00:00, 0.6,31.6
2023/08/12 10:10:00, 0.7,31.4
2023/08/12 10:20:00, 0.6,31.3
2023/08/12 10:30:00, 0.5,31.1
2023/08/12 10:40:00, 0.7,30.8
2023/08/12 10:50:00, 0.7,31.1
2023/08/12 11:00:00, 0.8,31.1
2023/08/12 11:10:00, 0.8,31.1
2023/08/12 11:20:00, 0.8,31.3
2023/08/12 11:30:00, 0.8,31.1
2023/08/12 11:40:00, 0.9,30.9
2023/08/12 11:50:00, 0.9,30.8
2023/08/12 12:00:00, 0.9,31.0
2023/08/12 12:10:00, 0.8,31.0
2023/08/12 12:20:00, 0.9,30.8
2023/08/12 12:30:00, 0.9,30.7
2023/08/12 12:40:00, 0.8,30.7
2023/08/12 12:50:00, 0.8,30.6
2023/08/12 13:00:00, 0.8,31.1
2023/08/12 13:10:00, 0.7,31.1
2023/08/12 13:20:00, 0.8,31.0
2023/08/12 13:30:00, 1.0,31.1
2023/08/12 13:40:00, 0.9,30.6
2023/08/12 13:50:00, 0.9,31.0
2023/08/12 14:00:00, 0.4,30.9
2023/08/12 14:10:00, 0.3,31.2
2023/08/12 14:20:00, 0.3,30.8
2023/08/12 14:30:00, 0.3,30.7
2023/08/12 14:40:00, 0.2,30.6
2023/08/12 14:50:00, 0.2,30.8
2023/08/12 15:00:00, 0.2,30.6
2023/08/12 15:10:00, 0.2,31.1
2023/08/12 15:20:00, 0.2,31.4
2023/08/12 15:30:00, 0.2,31.7
2023/08/12 15:40:00, 0.3,31.6
2023/08/12 15:50:00, 0.3,32.4
2023/08/12 16:00:00, 0.4,32.8
2023/08/12 16:10:00, 0.5,32.4
2023/08/12 16:20:00, 0.4,31.9
2023/08/12 16:30:00, 0.1,29.8
2023/08/12 16:40:00, 0.0,31.2
2023/08/12 16:50:00, 0.0,33.1
2023/08/12 17:00:00, 0.0,33.7
2023/08/12 17:10:00, 0.0,33.1
2023/08/12 17:20:00, 0.1,34.9
2023/08/12 17:30:00, 0.1,35.7
2023/08/12 17:40:00, 0.1,35.7
2023/08/12 17:50:00, 0.1,34.9
2023/08/12 18:00:00, 0.1,33.7
2023/08/12 18:10:00, 0.1,34.5
2023/08/12 18:20:00, 0.1,33.5
2023/08/12 18:30:00, 0.1,30.4
2023/08/12 18:40:00, 0.0,29.1
2023/08/12 18:50:00, 0.0,28.7
2023/08/12 19:00:00, 0.0,28.3
2023/08/12 19:10:00, 0.0,27.9
2023/08/12 19:20:00, 0.0,27.5
2023/08/12 19:30:00, 0.0,27.2
2023/08/12 19:40:00, 0.0,27.3
2023/08/12 19:50:00, 0.0,26.7
2023/08/12 20:00:00, 0.0,26.7
2023/08/12 20:10:00, 0.0,26.5
2023/08/12 20:20:00, 0.0,26.2
2023/08/12 20:30:00, 0.0,26.0
2023/08/12 20:40:00, 0.0,26.1
2023/08/12 20:50:00, 0.0,26.0
2023/08/12 21:00:00, 0.0,25.8
2023/08/12 21:10:00, 0.0,26.0
2023/08/12 21:20:00, 0.0,25.8
2023/08/12 21:30:00, 0.0,25.8
2023/08/12 21:40:00, 0.0,25.7
2023/08/12 21:50:00, 0.0,25.7
2023/08/12 22:00:00, 0.0,25.7
2023/08/12 22:10:00, 0.0,25.6
2023/08/12 22:20:00, 0.0,25.5
2023/08/12 22:30:00, 0.0,25.3
2023/08/12 22:40:00, 0.0,25.3
2023/08/12 22:50:00, 0.0,24.9
2023/08/12 23:00:00, 0.0,25.0
2023/08/12 23:10:00, 0.0,24.6
2023/08/12 23:20:00, 0.0,24.8
2023/08/12 23:30:00, 0.0,24.5
2023/08/12 23:40:00, 0.0,24.5
2023/08/12 23:50:00, 0.0,24.4
